Weather History for Wolf Creek Pass, CO

Change the Weather History Date:

Thursday, April 11, 2013

  Actual Average (KALS) Record (KALS)
Temperature  
Mean Temperature 16 °F 40 °F  
Max Temperature 26 °F 58 °F 73 °F (1971)
Min Temperature 5 °F 23 °F 2 °F (1951)
Degree Days  
Heating Degree Days 50 25  
Month to date heating degree days 285  
Since 1 July heating degree days 7591  
Cooling Degree Days 0 0  
Month to date cooling degree days 0  
Year to date cooling degree days 0  
Moisture  
Dew Point 14 °F    
Average Humidity 81    
Maximum Humidity 100    
Minimum Humidity 67    
Precipitation  
Precipitation 0.01 in 0.02 in 0.22 in (2009)
Month to date precipitation 0.21  
Year to date precipitation 1.26  
Snow  
Snow 0.00 in 0.10 in 2.00 in (1997)
Month to date snowfall 1.6  
Since 1 July snowfall 24.7  
Snow Depth -    
Sea Level Pressure  
Sea Level Pressure 29.96 in    
Wind  
Wind Speed 14 mph (West)    
Max Wind Speed 30 mph    
Max Gust Speed 38 mph    
Visibility 8 miles    
Events Fog , Snow , Thunderstorm    
T = Trace of Precipitation, MM = Missing Value Source: NWS Daily Summary

Daily Weather History Graph

Daily Weather History Graph

Search for Another Location

Airport:

Trip Planner

Search our weather history database for the weather conditions in past years. The results will help you decide how hot, cold, wet, or windy it might be!

Date:

Astronomy

Apr. 11, 2013 Rise Set
Actual Time 6:37 AM MDT 7:39 PM MDT
Civil Twilight 6:10 AM MDT 8:06 PM MDT
Nautical Twilight 5:39 AM MDT 8:37 PM MDT
Astronomical Twilight 5:06 AM MDT 9:10 PM MDT
Moon 7:12 AM MDT (4/11) 9:13 PM MDT (4/11)
Length of Visible Light 13h 55m
Length of Day
13h 01m
New Moon, 2% of the Moon is Illuminated
Apr 11
New Moon
Apr 18
First Quarter
Apr 25
Full
May 2
Last Quarter
May 9
New

Hourly Weather History & Observations

Time (MDT) Temp. Windchill Dew Point Humidity Pressure Visibility Wind Dir Wind Speed Gust Speed Precip Events Conditions
12:18 AM 5.0 °F -13.0 °F 3.2 °F 92% 29.91 in 10.0 mi NNE 15.0 mph 18.4 mph N/A   Clear
12:38 AM 5.0 °F -14.7 °F 3.2 °F 92% 29.91 in 10.0 mi NNE 18.4 mph - N/A   Clear
12:58 AM 6.8 °F -12.4 °F 3.2 °F 85% 29.91 in 10.0 mi NE 18.4 mph 23.0 mph N/A   Scattered Clouds
1:18 AM 6.8 °F -5.9 °F 1.4 °F 79% 29.93 in 10.0 mi NE 8.1 mph - N/A   Clear
1:38 AM 6.8 °F -10.0 °F 1.4 °F 79% 29.93 in 10.0 mi North 13.8 mph 20.7 mph N/A   Clear
1:58 AM 10.4 °F -11.0 °F 1.4 °F 67% 29.92 in 10.0 mi NNE 27.6 mph 33.4 mph N/A   Clear
2:18 AM 12.2 °F -9.3 °F 5.0 °F 73% 29.89 in 4.0 mi NE 29.9 mph 35.7 mph N/A   Haze
2:38 AM 14.0 °F -5.5 °F 5.0 °F 67% 29.91 in 4.0 mi NNE 25.3 mph 38.0 mph N/A Snow Light Snow
2:58 AM 14.0 °F -3.9 °F 5.0 °F 67% 29.91 in 10.0 mi NNE 20.7 mph - N/A   Clear
3:18 AM 14.0 °F -4.7 °F 6.8 °F 73% 29.89 in 10.0 mi NNE 23.0 mph 26.5 mph N/A   Clear
3:38 AM 14.0 °F -5.1 °F 6.8 °F 73% 29.89 in 10.0 mi North 24.2 mph - N/A   Clear
3:58 AM 12.2 °F -5.3 °F 6.8 °F 79% 29.91 in 10.0 mi North 18.4 mph - N/A   Clear
4:18 AM 14.0 °F -3.9 °F 8.6 °F 79% 29.91 in 10.0 mi North 20.7 mph 28.8 mph N/A   Clear
4:38 AM 14.0 °F -4.3 °F 8.6 °F 79% 29.91 in 10.0 mi North 21.9 mph 29.9 mph N/A   Clear
4:58 AM 14.0 °F -2.5 °F 8.6 °F 79% 29.91 in 10.0 mi NNE 17.3 mph 28.8 mph N/A   Clear
5:18 AM 14.0 °F -5.5 °F 8.6 °F 79% 29.91 in 7.0 mi NNE 25.3 mph - N/A   Clear
5:38 AM 14.0 °F -2.0 °F 8.6 °F 79% 29.91 in 10.0 mi NNE 16.1 mph 25.3 mph N/A   Clear
5:58 AM 15.8 °F 2.1 °F 10.4 °F 79% 29.91 in 10.0 mi NNE 12.7 mph - N/A   Clear
6:18 AM 14.0 °F - 8.6 °F 79% 29.92 in 10.0 mi Calm Calm - N/A   Clear
6:38 AM 14.0 °F 2.9 °F 10.4 °F 86% 29.91 in 10.0 mi West 8.1 mph - N/A   Clear
6:58 AM 14.0 °F 3.9 °F 10.4 °F 86% 29.92 in 10.0 mi WNW 6.9 mph - N/A   Clear
7:18 AM 14.0 °F 5.1 °F 10.4 °F 86% 29.93 in 10.0 mi NW 5.8 mph - N/A   Scattered Clouds
7:38 AM 15.8 °F 8.6 °F 10.4 °F 79% 29.93 in 10.0 mi NW 4.6 mph - N/A   Overcast
7:58 AM 17.6 °F 5.7 °F 12.2 °F 79% 29.93 in 10.0 mi West 10.4 mph 16.1 mph N/A Snow Light Snow
8:18 AM 17.6 °F 5.7 °F 14.0 °F 86% 29.94 in 7.0 mi West 10.4 mph 16.1 mph N/A Snow Light Snow
8:38 AM 19.4 °F 11.5 °F 14.0 °F 80% 29.94 in 10.0 mi West 5.8 mph - N/A   Overcast
8:58 AM 19.4 °F 7.2 °F 14.0 °F 80% 29.95 in 7.0 mi West 11.5 mph 17.3 mph N/A Snow Light Snow
9:18 AM 17.6 °F 5.0 °F 12.2 °F 79% 29.95 in 10.0 mi SSW 11.5 mph 16.1 mph N/A Snow Light Snow
9:38 AM 19.4 °F 11.5 °F 12.2 °F 74% 29.96 in 10.0 mi WSW 5.8 mph 18.4 mph N/A   Overcast
9:58 AM 21.2 °F 8.9 °F 12.2 °F 68% 29.95 in 10.0 mi SSW 12.7 mph 16.1 mph N/A   Mostly Cloudy
10:38 AM 21.2 °F 11.7 °F 14.0 °F 74% 29.97 in 10.0 mi SW 8.1 mph 18.4 mph N/A   Mostly Cloudy
10:58 AM 23.0 °F 10.6 °F 14.0 °F 68% 29.97 in 10.0 mi SSW 13.8 mph - N/A   Mostly Cloudy
11:38 AM 24.8 °F 13.4 °F 17.6 °F 74% 29.98 in 10.0 mi SW 12.7 mph - N/A   Overcast
11:58 AM 24.8 °F 14.0 °F 17.6 °F 74% 29.97 in 10.0 mi SSW 11.5 mph 18.4 mph N/A   Overcast
12:18 PM 24.8 °F 12.9 °F 17.6 °F 74% 29.97 in 10.0 mi SSW 13.8 mph 17.3 mph N/A   Overcast
12:38 PM 26.6 °F 15.7 °F 17.6 °F 69% 29.97 in 10.0 mi SSW 12.7 mph - N/A   Mostly Cloudy
12:58 PM 26.6 °F 15.7 °F 17.6 °F 69% 29.97 in 10.0 mi SW 12.7 mph 21.9 mph N/A   Scattered Clouds
1:18 PM 26.6 °F 14.3 °F 17.6 °F 69% 29.97 in 10.0 mi SSW 16.1 mph 23.0 mph N/A   Scattered Clouds
1:38 PM 24.8 °F 11.5 °F 17.6 °F 74% 29.97 in 10.0 mi SW 17.3 mph 24.2 mph N/A   Mostly Cloudy
1:58 PM 26.6 °F 14.3 °F 17.6 °F 69% 29.97 in 10.0 mi SSW 16.1 mph 26.5 mph N/A   Overcast
2:18 PM 26.6 °F 14.7 °F 19.4 °F 74% 29.98 in 10.0 mi SSW 15.0 mph 23.0 mph N/A   Overcast
2:38 PM 26.6 °F 13.8 °F 19.4 °F 74% 29.98 in 3.0 mi SSW 17.3 mph 25.3 mph N/A Snow Light Snow
2:58 PM 26.6 °F 14.7 °F 19.4 °F 74% 29.98 in 7.0 mi SSW 15.0 mph - N/A Snow Light Snow
3:38 PM 24.8 °F 11.9 °F 21.2 °F 86% 29.97 in 1.8 mi SSW 16.1 mph 24.2 mph N/A Snow Light Snow
3:58 PM 26.6 °F 14.7 °F 23.0 °F 86% 29.97 in 7.0 mi WSW 15.0 mph 19.6 mph N/A Snow Light Snow
4:18 PM 26.6 °F 15.7 °F 23.0 °F 86% 29.97 in 1.5 mi WSW 12.7 mph 17.3 mph N/A Snow Light Snow
4:38 PM 24.8 °F 14.0 °F 23.0 °F 93% 29.97 in 2.0 mi SW 11.5 mph - N/A   Overcast
4:58 PM 26.6 °F 22.6 °F 23.0 °F 86% 29.98 in 1.2 mi South 3.5 mph - N/A Snow Light Snow
5:18 PM 24.8 °F 16.1 °F 23.0 °F 93% 29.98 in 1.2 mi WSW 8.1 mph - N/A Snow Light Snow
5:38 PM 24.8 °F 20.5 °F 23.0 °F 93% 29.98 in 0.5 mi SE 3.5 mph - N/A Snow Light Snow
5:58 PM 24.8 °F 19.1 °F 24.8 °F 100% 29.98 in 0.2 mi SSE 4.6 mph - N/A Snow Snow
6:18 PM 24.8 °F 16.1 °F 23.0 °F 93% 29.98 in 4.0 mi SW 8.1 mph - 0.01 in Thunderstorm Overcast
6:38 PM 24.8 °F 19.1 °F 23.0 °F 93% 29.98 in 0.2 mi South 4.6 mph - 0.01 in Snow Light Snow
6:58 PM 24.8 °F 20.5 °F 24.8 °F 100% 29.99 in 3.0 mi WSW 3.5 mph - 0.01 in   Overcast
7:18 PM 24.8 °F 19.1 °F 21.2 °F 86% 29.98 in 10.0 mi West 4.6 mph - N/A   Scattered Clouds
7:38 PM 23.0 °F 15.8 °F 23.0 °F 100% 29.99 in 0.8 mi SSW 5.8 mph - N/A   Mostly Cloudy
7:58 PM 23.0 °F 14.7 °F 23.0 °F 100% 29.99 in 0.2 mi SW 6.9 mph - N/A Fog Light Freezing Fog
8:18 PM 23.0 °F 17.0 °F 23.0 °F 100% 29.99 in 1.0 mi WSW 4.6 mph - N/A   Overcast
8:38 PM 23.0 °F - 23.0 °F 100% 29.99 in 5.0 mi Calm Calm - N/A   Overcast
8:58 PM 23.0 °F 17.0 °F 21.2 °F 93% 30.00 in 10.0 mi West 4.6 mph - N/A   Overcast
9:18 PM 23.0 °F 13.9 °F 21.2 °F 93% 30.01 in 5.0 mi NNE 8.1 mph - N/A   Mostly Cloudy
9:38 PM 21.2 °F 11.7 °F 17.6 °F 86% 30.01 in 10.0 mi WNW 8.1 mph - N/A   Mostly Cloudy
9:58 PM 21.2 °F 16.4 °F 17.6 °F 86% 30.02 in 10.0 mi NW 3.5 mph - N/A   Mostly Cloudy
10:18 PM 21.2 °F 14.9 °F 17.6 °F 86% 30.02 in 10.0 mi NW 4.6 mph - N/A   Overcast
10:38 PM 21.2 °F 16.4 °F 15.8 °F 80% 30.03 in 10.0 mi East 3.5 mph - N/A   Scattered Clouds
10:58 PM 19.4 °F 14.3 °F 12.2 °F 74% 30.03 in 10.0 mi ENE 3.5 mph - N/A   Clear
11:18 PM 19.4 °F 14.3 °F 10.4 °F 68% 30.02 in 10.0 mi ENE 3.5 mph - N/A   Clear
11:38 PM 19.4 °F 14.3 °F 10.4 °F 68% 30.02 in 10.0 mi NW 3.5 mph - N/A   Clear
11:58 PM 19.4 °F 14.3 °F 17.6 °F 93% 30.02 in 10.0 mi SSW 3.5 mph - N/A   Scattered Clouds